Weather History for Sheringham Point, BC

Change the Weather History Date:

Thursday, August 22, 2013

  Actual Average Record
Temperature  
Mean Temperature 59 °F -  
Max Temperature 68 °F - - ()
Min Temperature 50 °F - - ()
Degree Days  
Heating Degree Days 6    
Growing Degree Days 9 (Base 50)    
Moisture  
Dew Point 50 °F    
Average Humidity 84    
Maximum Humidity 99    
Minimum Humidity 54    
Precipitation  
Precipitation 0.00 in - - ()
Sea Level Pressure  
Sea Level Pressure 29.89 in    
Wind  
Wind Speed 5 mph ()    
Max Wind Speed 28 mph    
Max Gust Speed 29 mph    
T = Trace of Precipitation, MM = Missing Value Source: Averaged Metar Reports

Daily Weather History Graph

Daily Weather History Graph

Search for Another Location

Airport:

Trip Planner

Search our weather history database for the weather conditions in past years. The results will help you decide how hot, cold, wet, or windy it might be!

Date:

Astronomy

Aug. 22, 2013 Rise Set
Actual Time 6:19 AM PDT 8:16 PM PDT
Civil Twilight 5:46 AM PDT 8:49 PM PDT
Nautical Twilight 5:04 AM PDT 9:30 PM PDT
Astronomical Twilight 4:18 AM PDT 10:16 PM PDT
Moon 8:46 PM PDT (8/22) 8:28 AM PDT (8/22)
Length of Visible Light 15h 03m
Length of Day
13h 56m
Waning Gibbous, 96% of the Moon is Illuminated
Aug 22
Waning Gibbous
Aug 28
Last Quarter
Sep 5
New
Sep 12
First Quarter
Sep 19
Full

Hourly Weather History & Observations

Time (PDT) Temp. Dew Point Humidity Pressure Visibility Wind Dir Wind Speed Gust Speed Precip Events Conditions
12:00 AM 52.7 °F 50.4 °F 92% 29.96 in - ENE 1.2 mph - N/A   Unknown
1:00 AM 51.8 °F 50.0 °F 94% 29.96 in - West 1.2 mph - N/A   Unknown
2:00 AM 50.9 °F 49.1 °F 94% 29.95 in - Calm Calm - N/A   Unknown
3:00 AM 53.1 °F 51.3 °F 94% 29.94 in - NNE 1.2 mph - N/A   Unknown
4:00 AM 52.7 °F 49.6 °F 89% 29.94 in - Calm Calm - N/A   Unknown
5:00 AM 52.0 °F 49.1 °F 90% 29.93 in - Calm Calm - N/A   Unknown
6:00 AM 51.1 °F 48.9 °F 92% 29.93 in - Calm Calm - N/A   Unknown
7:00 AM 51.4 °F 49.3 °F 92% 29.94 in - Calm Calm - N/A   Unknown
8:00 AM 52.5 °F 48.4 °F 86% 29.94 in - East 2.3 mph - N/A   Unknown
9:00 AM 51.1 °F 46.9 °F 86% 29.93 in - East 5.8 mph - N/A   Unknown
10:00 AM 52.2 °F 48.2 °F 86% 29.92 in - ESE 1.2 mph - N/A   Unknown
11:00 AM 56 °F 49 °F 70% 29.91 in - East 2.3 mph - -  
11:00 AM 56.1 °F 48.9 °F 77% 29.91 in - East 2.3 mph - N/A   Unknown
12:00 PM 63.0 °F 48.4 °F 59% 29.91 in - Calm Calm - N/A   Unknown
1:00 PM 61.3 °F 49.1 °F 64% 29.89 in - Calm Calm - N/A   Unknown
2:00 PM 64.2 °F 48.7 °F 57% 29.88 in - West 1.2 mph - N/A   Unknown
3:00 PM 66.4 °F 49.1 °F 54% 29.86 in - West 3.5 mph - N/A   Unknown
4:00 PM 60.3 °F 49.5 °F 68% 29.85 in - WNW 12.7 mph - N/A   Unknown
5:00 PM 56 °F 51 °F 79% 29.83 in - WNW 18.4 mph - -  
5:00 PM 56.5 °F 51.3 °F 83% 29.83 in - WNW 18.4 mph - N/A   Unknown
6:00 PM 56.7 °F 51.8 °F 84% 29.81 in - WNW 19.6 mph - N/A   Unknown
7:00 PM 53.1 °F 51.6 °F 95% 29.81 in - WNW 24.2 mph - N/A   Unknown
8:00 PM 52.9 °F 52.2 °F 97% 29.81 in - WNW 23.0 mph 28.8 mph N/A   Unknown
9:00 PM 52.2 °F 51.6 °F 98% 29.82 in - WNW 25.3 mph - N/A   Unknown
10:00 PM 51.6 °F 51.1 °F 98% 29.83 in - WNW 24.2 mph - N/A   Unknown
11:00 PM 54 °F 54 °F 99% 29.81 in - WNW 27.6 mph - -  
11:00 PM 54.3 °F 53.8 °F 98% 29.81 in - WNW 27.6 mph - N/A   Unknown